Time,TemperatureF,DewpointF,PressureIn,WindDirection,WindDirectionDegrees,WindSpeedMPH,WindSpeedGustMPH,Humidity,HourlyPrecipIn,Conditions,Clouds,dailyrainin,SoftwareType,DateUTC
2013-10-02 00:01:00,64.5,60.5,29.86,West,260,4.0,9.0,87,0.00,,,0.00,WUHU216DAVISVP2,2013-10-02 04:01:00,
2013-10-02 00:02:00,64.5,60.5,29.87,SW,231,3.0,9.0,87,0.00,,,0.00,WUHU216DAVISVP2,2013-10-02 04:02:00,
2013-10-02 00:07:00,64.3,60.3,29.87,SW,229,2.0,8.0,87,0.00,,,0.00,WUHU216DAVISVP2,2013-10-02 04:07:00,
2013-10-02 00:12:00,64.2,60.6,29.87,WSW,255,3.0,8.0,88,0.00,,,0.00,WUHU216DAVISVP2,2013-10-02 04:12:00,
2013-10-02 00:17:00,64.2,60.6,29.86,WSW,255,3.0,9.0,88,0.00,,,0.00,WUHU216DAVISVP2,2013-10-02 04:17:00,
2013-10-02 00:22:00,64.1,60.5,29.86,WSW,252,3.0,9.0,88,0.00,,,0.00,WUHU216DAVISVP2,2013-10-02 04:22:00,
2013-10-02 00:27:00,64.0,60.4,29.86,West,260,2.0,9.0,88,0.00,,,0.00,WUHU216DAVISVP2,2013-10-02 04:27:00,
2013-10-02 00:32:00,64.0,60.4,29.86,SSW,212,2.0,9.0,88,0.00,,,0.00,WUHU216DAVISVP2,2013-10-02 04:32:00,
2013-10-02 00:37:00,63.9,60.3,29.86,WSW,253,3.0,7.0,88,0.00,,,0.00,WUHU216DAVISVP2,2013-10-02 04:37:00,
2013-10-02 00:42:00,63.9,60.6,29.86,WSW,252,4.0,7.0,89,0.00,,,0.00,WUHU216DAVISVP2,2013-10-02 04:42:00,
2013-10-02 00:47:00,63.9,60.6,29.86,West,262,2.0,6.0,89,0.00,,,0.00,WUHU216DAVISVP2,2013-10-02 04:47:00,
2013-10-02 00:52:00,63.9,60.6,29.86,West,262,3.0,6.0,89,0.00,,,0.00,WUHU216DAVISVP2,2013-10-02 04:52:00,
2013-10-02 00:57:00,63.9,60.6,29.87,WSW,243,2.0,6.0,89,0.00,,,0.00,WUHU216DAVISVP2,2013-10-02 04:57:00,
2013-10-02 01:02:00,63.9,60.6,29.86,WSW,255,4.0,6.0,89,0.00,,,0.00,WUHU216DAVISVP2,2013-10-02 05:02:00,
2013-10-02 01:07:00,63.9,60.6,29.87,WSW,239,2.0,6.0,89,0.00,,,0.00,WUHU216DAVISVP2,2013-10-02 05:07:00,
2013-10-02 01:12:00,63.9,60.6,29.86,WSW,248,4.0,6.0,89,0.00,,,0.00,WUHU216DAVISVP2,2013-10-02 05:12:00,
2013-10-02 01:17:00,63.9,60.6,29.86,SW,235,3.0,5.0,89,0.00,,,0.00,WUHU216DAVISVP2,2013-10-02 05:17:00,
2013-10-02 01:22:00,63.9,60.6,29.86,WSW,246,2.0,6.0,89,0.00,,,0.00,WUHU216DAVISVP2,2013-10-02 05:22:00,
2013-10-02 01:27:00,63.9,60.6,29.86,WSW,255,3.0,6.0,89,0.00,,,0.00,WUHU216DAVISVP2,2013-10-02 05:27:00,
2013-10-02 01:32:00,63.9,60.6,29.86,South,184,3.0,5.0,89,0.00,,,0.00,WUHU216DAVISVP2,2013-10-02 05:32:00,
2013-10-02 01:37:00,63.9,60.6,29.87,SSW,200,4.0,5.0,89,0.00,,,0.00,WUHU216DAVISVP2,2013-10-02 05:37:00,
2013-10-02 01:42:00,63.9,60.6,29.87,West,274,1.0,5.0,89,0.00,,,0.00,WUHU216DAVISVP2,2013-10-02 05:42:00,
2013-10-02 01:47:00,63.9,60.6,29.87,WSW,248,2.0,5.0,89,0.00,,,0.00,WUHU216DAVISVP2,2013-10-02 05:47:00,
2013-10-02 01:52:00,63.9,60.6,29.87,West,264,3.0,5.0,89,0.00,,,0.00,WUHU216DAVISVP2,2013-10-02 05:52:00,
2013-10-02 01:57:00,64.1,60.8,29.87,WSW,253,3.0,6.0,89,0.00,,,0.00,WUHU216DAVISVP2,2013-10-02 05:57:00,
2013-10-02 02:02:00,64.2,60.9,29.87,WSW,257,3.0,6.0,89,0.00,,,0.00,WUHU216DAVISVP2,2013-10-02 06:02:00,
2013-10-02 02:07:00,64.3,61.0,29.87,WSW,255,3.0,6.0,89,0.00,,,0.00,WUHU216DAVISVP2,2013-10-02 06:07:00,
2013-10-02 02:12:00,64.3,61.0,29.87,WSW,243,3.0,5.0,89,0.00,,,0.00,WUHU216DAVISVP2,2013-10-02 06:12:00,
2013-10-02 02:17:00,64.5,61.2,29.87,West,269,3.0,8.0,89,0.00,,,0.00,WUHU216DAVISVP2,2013-10-02 06:17:00,
2013-10-02 02:22:00,64.6,61.3,29.87,WSW,240,3.0,8.0,89,0.00,,,0.00,WUHU216DAVISVP2,2013-10-02 06:22:00,
2013-10-02 02:27:00,64.6,61.3,29.87,WSW,248,2.0,8.0,89,0.00,,,0.00,WUHU216DAVISVP2,2013-10-02 06:27:00,
2013-10-02 02:32:00,64.6,61.3,29.87,West,264,2.0,7.0,89,0.00,,,0.00,WUHU216DAVISVP2,2013-10-02 06:32:00,
2013-10-02 02:37:00,64.7,61.4,29.87,WSW,252,3.0,6.0,89,0.00,,,0.00,WUHU216DAVISVP2,2013-10-02 06:37:00,
2013-10-02 02:42:00,64.6,61.3,29.87,SW,231,2.0,6.0,89,0.00,,,0.00,WUHU216DAVISVP2,2013-10-02 06:42:00,
2013-10-02 02:47:00,64.6,61.3,29.87,SSW,208,4.0,5.0,89,0.00,,,0.00,WUHU216DAVISVP2,2013-10-02 06:47:00,
2013-10-02 02:52:00,64.5,61.2,29.87,SW,215,1.0,5.0,89,0.00,,,0.00,WUHU216DAVISVP2,2013-10-02 06:52:00,
2013-10-02 02:57:00,64.4,61.1,29.87,West,264,1.0,5.0,89,0.00,,,0.00,WUHU216DAVISVP2,2013-10-02 06:57:00,
2013-10-02 03:02:00,64.4,61.1,29.87,WSW,253,2.0,4.0,89,0.00,,,0.00,WUHU216DAVISVP2,2013-10-02 07:02:00,
2013-10-02 03:07:00,64.4,61.1,29.87,South,179,1.0,4.0,89,0.00,,,0.00,WUHU216DAVISVP2,2013-10-02 07:07:00,
2013-10-02 03:12:00,64.4,61.4,29.87,West,264,2.0,6.0,90,0.00,,,0.00,WUHU216DAVISVP2,2013-10-02 07:12:00,
2013-10-02 03:17:00,64.4,61.4,29.88,WSW,254,3.0,6.0,90,0.00,,,0.00,WUHU216DAVISVP2,2013-10-02 07:17:00,
2013-10-02 03:22:00,64.4,61.4,29.88,West,259,3.0,5.0,90,0.00,,,0.00,WUHU216DAVISVP2,2013-10-02 07:22:00,
2013-10-02 03:27:00,64.3,61.3,29.87,West,277,2.0,5.0,90,0.00,,,0.00,WUHU216DAVISVP2,2013-10-02 07:27:00,
2013-10-02 03:32:00,64.4,61.4,29.88,SSW,211,2.0,6.0,90,0.00,,,0.00,WUHU216DAVISVP2,2013-10-02 07:32:00,
2013-10-02 03:37:00,64.3,61.3,29.88,WSW,257,3.0,6.0,90,0.00,,,0.00,WUHU216DAVISVP2,2013-10-02 07:37:00,
2013-10-02 03:42:00,64.2,61.2,29.88,West,269,1.0,5.0,90,0.00,,,0.00,WUHU216DAVISVP2,2013-10-02 07:42:00,
2013-10-02 03:47:00,64.1,61.1,29.88,West,263,2.0,5.0,90,0.00,,,0.00,WUHU216DAVISVP2,2013-10-02 07:47:00,
2013-10-02 03:52:00,63.9,60.9,29.88,West,262,3.0,5.0,90,0.00,,,0.00,WUHU216DAVISVP2,2013-10-02 07:52:00,
2013-10-02 03:57:00,63.9,61.2,29.88,WSW,250,2.0,5.0,91,0.00,,,0.00,WUHU216DAVISVP2,2013-10-02 07:57:00,
2013-10-02 04:02:00,63.9,61.2,29.88,West,259,2.0,4.0,91,0.00,,,0.00,WUHU216DAVISVP2,2013-10-02 08:02:00,
2013-10-02 04:07:00,63.8,61.1,29.88,WSW,250,2.0,4.0,91,0.00,,,0.00,WUHU216DAVISVP2,2013-10-02 08:07:00,
2013-10-02 04:12:00,63.7,61.0,29.88,WSW,248,2.0,5.0,91,0.00,,,0.00,WUHU216DAVISVP2,2013-10-02 08:12:00,
2013-10-02 04:17:00,63.6,60.9,29.88,WSW,257,1.0,5.0,91,0.00,,,0.00,WUHU216DAVISVP2,2013-10-02 08:17:00,
2013-10-02 04:22:00,63.5,60.8,29.89,West,264,1.0,5.0,91,0.00,,,0.00,WUHU216DAVISVP2,2013-10-02 08:22:00,
2013-10-02 04:27:00,63.4,61.0,29.89,WSW,248,2.0,5.0,92,0.00,,,0.00,WUHU216DAVISVP2,2013-10-02 08:27:00,
2013-10-02 04:32:00,63.3,60.9,29.89,West,262,1.0,4.0,92,0.00,,,0.00,WUHU216DAVISVP2,2013-10-02 08:32:00,
2013-10-02 04:37:00,63.1,60.7,29.89,West,260,1.0,4.0,92,0.00,,,0.00,WUHU216DAVISVP2,2013-10-02 08:37:00,
2013-10-02 04:42:00,63.0,60.6,29.90,West,269,2.0,3.0,92,0.00,,,0.00,WUHU216DAVISVP2,2013-10-02 08:42:00,
2013-10-02 04:47:00,62.8,60.7,29.90,West,259,1.0,3.0,93,0.00,,,0.00,WUHU216DAVISVP2,2013-10-02 08:47:00,
2013-10-02 04:52:00,62.6,60.5,29.90,West,259,2.0,3.0,93,0.00,,,0.00,WUHU216DAVISVP2,2013-10-02 08:52:00,
2013-10-02 04:57:00,62.6,60.5,29.90,WSW,255,2.0,3.0,93,0.00,,,0.00,WUHU216DAVISVP2,2013-10-02 08:57:00,
2013-10-02 05:02:00,62.5,60.4,29.90,West,269,1.0,3.0,93,0.00,,,0.00,WUHU216DAVISVP2,2013-10-02 09:02:00,
2013-10-02 05:07:00,62.5,60.4,29.90,West,264,1.0,3.0,93,0.00,,,0.00,WUHU216DAVISVP2,2013-10-02 09:07:00,
2013-10-02 05:12:00,62.3,60.5,29.90,West,270,1.0,3.0,94,0.00,,,0.00,WUHU216DAVISVP2,2013-10-02 09:12:00,
2013-10-02 05:17:00,62.3,60.5,29.90,West,262,2.0,3.0,94,0.00,,,0.00,WUHU216DAVISVP2,2013-10-02 09:17:00,
2013-10-02 05:22:00,62.3,60.5,29.90,West,267,1.0,3.0,94,0.00,,,0.00,WUHU216DAVISVP2,2013-10-02 09:22:00,
2013-10-02 05:27:00,62.2,60.4,29.91,West,260,1.0,3.0,94,0.00,,,0.00,WUHU216DAVISVP2,2013-10-02 09:27:00,
2013-10-02 05:32:00,62.2,60.4,29.91,West,262,1.0,3.0,94,0.00,,,0.00,WUHU216DAVISVP2,2013-10-02 09:32:00,
2013-10-02 05:37:00,62.1,60.6,29.91,West,260,2.0,3.0,95,0.00,,,0.00,WUHU216DAVISVP2,2013-10-02 09:37:00,
2013-10-02 05:42:00,62.0,60.5,29.91,WSW,256,1.0,3.0,95,0.00,,,0.00,WUHU216DAVISVP2,2013-10-02 09:42:00,
2013-10-02 05:47:00,61.9,60.4,29.91,West,262,2.0,3.0,95,0.00,,,0.00,WUHU216DAVISVP2,2013-10-02 09:47:00,
2013-10-02 05:52:00,61.8,60.3,29.91,West,269,1.0,3.0,95,0.00,,,0.00,WUHU216DAVISVP2,2013-10-02 09:52:00,
2013-10-02 05:57:00,61.7,60.2,29.91,WSW,255,2.0,3.0,95,0.00,,,0.00,WUHU216DAVISVP2,2013-10-02 09:57:00,
2013-10-02 06:02:00,61.6,60.1,29.91,West,266,1.0,3.0,95,0.00,,,0.00,WUHU216DAVISVP2,2013-10-02 10:02:00,
2013-10-02 06:07:00,61.5,60.0,29.92,WSW,257,2.0,3.0,95,0.00,,,0.00,WUHU216DAVISVP2,2013-10-02 10:07:00,
2013-10-02 06:12:00,61.4,60.2,29.92,West,259,1.0,2.0,96,0.00,,,0.00,WUHU216DAVISVP2,2013-10-02 10:12:00,
2013-10-02 06:17:00,61.3,60.1,29.92,West,264,1.0,2.0,96,0.00,,,0.00,WUHU216DAVISVP2,2013-10-02 10:17:00,
2013-10-02 06:22:00,61.3,60.1,29.92,West,266,1.0,2.0,96,0.00,,,0.00,WUHU216DAVISVP2,2013-10-02 10:22:00,
2013-10-02 06:27:00,61.2,60.0,29.92,West,273,0.0,2.0,96,0.00,,,0.00,WUHU216DAVISVP2,2013-10-02 10:27:00,
2013-10-02 06:32:00,61.1,59.9,29.92,West,267,1.0,2.0,96,0.00,,,0.00,WUHU216DAVISVP2,2013-10-02 10:32:00,
2013-10-02 06:37:00,61.1,59.9,29.92,West,274,1.0,2.0,96,0.00,,,0.00,WUHU216DAVISVP2,2013-10-02 10:37:00,
2013-10-02 06:42:00,60.9,59.7,29.92,West,274,1.0,2.0,96,0.00,,,0.00,WUHU216DAVISVP2,2013-10-02 10:42:00,
2013-10-02 06:47:00,60.8,59.9,29.92,West,273,0.0,2.0,97,0.00,,,0.00,WUHU216DAVISVP2,2013-10-02 10:47:00,
2013-10-02 06:52:00,60.8,59.9,29.93,West,278,1.0,2.0,97,0.00,,,0.00,WUHU216DAVISVP2,2013-10-02 10:52:00,
2013-10-02 06:57:00,60.7,59.8,29.93,West,276,1.0,2.0,97,0.00,,,0.00,WUHU216DAVISVP2,2013-10-02 10:57:00,
2013-10-02 07:02:00,60.7,59.8,29.93,West,278,1.0,2.0,97,0.00,,,0.00,WUHU216DAVISVP2,2013-10-02 11:02:00,
2013-10-02 07:07:00,60.6,59.7,29.93,West,274,1.0,2.0,97,0.00,,,0.00,WUHU216DAVISVP2,2013-10-02 11:07:00,
2013-10-02 07:12:00,60.6,59.7,29.93,West,274,1.0,2.0,97,0.00,,,0.00,WUHU216DAVISVP2,2013-10-02 11:12:00,
2013-10-02 07:17:00,60.5,59.6,29.93,West,274,1.0,2.0,97,0.00,,,0.00,WUHU216DAVISVP2,2013-10-02 11:17:00,
2013-10-02 07:22:00,60.4,59.5,29.93,West,273,1.0,2.0,97,0.00,,,0.00,WUHU216DAVISVP2,2013-10-02 11:22:00,
2013-10-02 07:27:00,60.4,59.5,29.94,West,273,1.0,2.0,97,0.00,,,0.00,WUHU216DAVISVP2,2013-10-02 11:27:00,
2013-10-02 07:32:00,60.3,59.4,29.94,West,266,1.0,3.0,97,0.00,,,0.00,WUHU216DAVISVP2,2013-10-02 11:32:00,
2013-10-02 07:37:00,60.3,59.4,29.94,West,267,1.0,3.0,97,0.00,,,0.00,WUHU216DAVISVP2,2013-10-02 11:37:00,
2013-10-02 07:42:00,60.2,59.3,29.94,West,274,1.0,2.0,97,0.00,,,0.00,WUHU216DAVISVP2,2013-10-02 11:42:00,
2013-10-02 07:47:00,60.1,59.2,29.94,West,275,1.0,2.0,97,0.00,,,0.00,WUHU216DAVISVP2,2013-10-02 11:47:00,
2013-10-02 07:52:00,60.1,59.2,29.95,West,274,1.0,2.0,97,0.00,,,0.00,WUHU216DAVISVP2,2013-10-02 11:52:00,
2013-10-02 07:57:00,60.0,59.1,29.95,West,276,1.0,2.0,97,0.00,,,0.00,WUHU216DAVISVP2,2013-10-02 11:57:00,
2013-10-02 08:02:00,60.0,59.1,29.95,West,271,1.0,2.0,97,0.00,,,0.00,WUHU216DAVISVP2,2013-10-02 12:02:00,
2013-10-02 08:07:00,60.1,59.2,29.95,West,276,1.0,2.0,97,0.00,,,0.00,WUHU216DAVISVP2,2013-10-02 12:07:00,
2013-10-02 08:12:00,60.1,59.2,29.95,West,281,1.0,2.0,97,0.00,,,0.00,WUHU216DAVISVP2,2013-10-02 12:12:00,
2013-10-02 08:17:00,60.1,59.2,29.95,West,273,1.0,2.0,97,0.00,,,0.00,WUHU216DAVISVP2,2013-10-02 12:17:00,
2013-10-02 08:22:00,60.2,59.3,29.96,West,271,0.0,2.0,97,0.00,,,0.00,WUHU216DAVISVP2,2013-10-02 12:22:00,
2013-10-02 08:27:00,60.3,59.4,29.96,West,264,1.0,2.0,97,0.00,,,0.00,WUHU216DAVISVP2,2013-10-02 12:27:00,
2013-10-02 08:32:00,60.4,59.5,29.96,West,269,0.0,1.0,97,0.00,,,0.00,WUHU216DAVISVP2,2013-10-02 12:32:00,
2013-10-02 08:37:00,60.5,59.6,29.96,WNW,283,1.0,1.0,97,0.00,,,0.00,WUHU216DAVISVP2,2013-10-02 12:37:00,
2013-10-02 08:42:00,60.7,59.5,29.96,WNW,282,0.0,1.0,96,0.00,,,0.00,WUHU216DAVISVP2,2013-10-02 12:42:00,
2013-10-02 08:47:00,60.8,59.6,29.97,WNW,300,0.0,2.0,96,0.00,,,0.00,WUHU216DAVISVP2,2013-10-02 12:47:00,
2013-10-02 08:52:00,61.0,59.8,29.97,WNW,300,0.0,2.0,96,0.00,,,0.00,WUHU216DAVISVP2,2013-10-02 12:52:00,
2013-10-02 08:57:00,61.2,59.7,29.97,WNW,290,1.0,2.0,95,0.00,,,0.00,WUHU216DAVISVP2,2013-10-02 12:57:00,
2013-10-02 09:02:00,61.4,59.6,29.97,WNW,289,0.0,2.0,94,0.00,,,0.00,WUHU216DAVISVP2,2013-10-02 13:02:00,
2013-10-02 09:07:00,61.7,59.6,29.97,WNW,284,1.0,2.0,93,0.00,,,0.00,WUHU216DAVISVP2,2013-10-02 13:07:00,
2013-10-02 09:12:00,62.0,59.6,29.97,WNW,285,1.0,2.0,92,0.00,,,0.00,WUHU216DAVISVP2,2013-10-02 13:12:00,
2013-10-02 09:17:00,62.3,59.6,29.98,West,269,2.0,2.0,91,0.00,,,0.00,WUHU216DAVISVP2,2013-10-02 13:17:00,
2013-10-02 09:22:00,62.5,59.2,29.98,NW,304,1.0,2.0,89,0.00,,,0.00,WUHU216DAVISVP2,2013-10-02 13:22:00,
2013-10-02 09:27:00,62.8,58.9,29.98,NW,304,1.0,3.0,87,0.00,,,0.00,WUHU216DAVISVP2,2013-10-02 13:27:00,
2013-10-02 09:32:00,63.0,58.7,29.98,NW,313,0.0,3.0,86,0.00,,,0.00,WUHU216DAVISVP2,2013-10-02 13:32:00,
2013-10-02 09:37:00,63.2,58.3,29.98,NNW,330,1.0,3.0,84,0.00,,,0.00,WUHU216DAVISVP2,2013-10-02 13:37:00,
2013-10-02 09:42:00,63.4,57.8,29.98,WNW,296,1.0,3.0,82,0.00,,,0.00,WUHU216DAVISVP2,2013-10-02 13:42:00,
2013-10-02 09:47:00,63.7,58.1,29.98,WNW,284,0.0,3.0,82,0.00,,,0.00,WUHU216DAVISVP2,2013-10-02 13:47:00,
2013-10-02 09:52:00,63.9,57.6,29.98,West,276,0.0,3.0,80,0.00,,,0.00,WUHU216DAVISVP2,2013-10-02 13:52:00,
2013-10-02 09:57:00,64.2,57.5,29.98,WNW,286,1.0,3.0,79,0.00,,,0.00,WUHU216DAVISVP2,2013-10-02 13:57:00,
2013-10-02 10:02:00,64.4,57.4,29.99,East,87,1.0,4.0,78,0.00,,,0.00,WUHU216DAVISVP2,2013-10-02 14:02:00,
2013-10-02 10:07:00,64.7,57.1,29.99,WNW,290,0.0,4.0,76,0.00,,,0.00,WUHU216DAVISVP2,2013-10-02 14:07:00,
2013-10-02 10:12:00,65.0,57.0,29.99,NNE,30,2.0,3.0,75,0.00,,,0.00,WUHU216DAVISVP2,2013-10-02 14:12:00,
2013-10-02 10:17:00,65.4,55.7,29.99,NNE,25,1.0,5.0,71,0.00,,,0.00,WUHU216DAVISVP2,2013-10-02 14:17:00,
2013-10-02 10:22:00,65.7,56.6,29.99,WNW,297,1.0,5.0,72,0.00,,,0.00,WUHU216DAVISVP2,2013-10-02 14:22:00,
2013-10-02 10:27:00,65.9,56.0,29.99,NNE,30,2.0,6.0,70,0.00,,,0.00,WUHU216DAVISVP2,2013-10-02 14:27:00,
2013-10-02 10:32:00,66.0,56.1,29.99,North,352,3.0,6.0,70,0.00,,,0.00,WUHU216DAVISVP2,2013-10-02 14:32:00,
2013-10-02 10:37:00,66.1,56.2,29.99,NNW,333,5.0,6.0,70,0.00,,,0.00,WUHU216DAVISVP2,2013-10-02 14:37:00,
2013-10-02 10:42:00,66.2,55.9,29.99,NNE,19,1.0,6.0,69,0.00,,,0.00,WUHU216DAVISVP2,2013-10-02 14:42:00,
2013-10-02 10:47:00,66.3,56.4,29.99,WNW,283,0.0,6.0,70,0.00,,,0.00,WUHU216DAVISVP2,2013-10-02 14:47:00,
2013-10-02 10:52:00,66.5,56.2,29.99,WNW,288,1.0,6.0,69,0.00,,,0.00,WUHU216DAVISVP2,2013-10-02 14:52:00,
2013-10-02 10:57:00,66.7,56.4,29.99,WNW,285,2.0,3.0,69,0.00,,,0.00,WUHU216DAVISVP2,2013-10-02 14:57:00,
2013-10-02 11:02:00,67.0,55.9,29.99,NE,34,2.0,5.0,67,0.00,,,0.00,WUHU216DAVISVP2,2013-10-02 15:02:00,
2013-10-02 11:07:00,67.4,56.6,29.99,North,360,1.0,5.0,68,0.00,,,0.00,WUHU216DAVISVP2,2013-10-02 15:07:00,
2013-10-02 11:12:00,67.8,57.0,29.99,North,360,2.0,4.0,68,0.00,,,0.00,WUHU216DAVISVP2,2013-10-02 15:12:00,
2013-10-02 11:17:00,68.0,56.4,29.99,WNW,288,0.0,4.0,66,0.00,,,0.00,WUHU216DAVISVP2,2013-10-02 15:17:00,
2013-10-02 11:22:00,68.2,56.2,29.99,North,8,1.0,5.0,65,0.00,,,0.00,WUHU216DAVISVP2,2013-10-02 15:22:00,
2013-10-02 11:27:00,68.5,56.5,29.99,WNW,302,0.0,5.0,65,0.00,,,0.00,WUHU216DAVISVP2,2013-10-02 15:27:00,
2013-10-02 11:32:00,68.8,55.9,29.99,North,349,4.0,4.0,63,0.00,,,0.00,WUHU216DAVISVP2,2013-10-02 15:32:00,
2013-10-02 11:33:00,68.8,54.5,29.99,NE,50,3.0,4.0,60,0.00,,,0.00,WUHU216DAVISVP2,2013-10-02 15:33:00,
2013-10-02 11:38:00,69.0,51.8,29.99,North,1,1.0,6.0,54,0.00,,,0.00,WUHU216DAVISVP2,2013-10-02 15:38:00,
2013-10-02 11:43:00,69.3,50.5,29.99,NW,316,1.0,6.0,51,0.00,,,0.00,WUHU216DAVISVP2,2013-10-02 15:43:00,
2013-10-02 11:48:00,69.5,51.7,29.99,NNE,30,2.0,5.0,53,0.00,,,0.00,WUHU216DAVISVP2,2013-10-02 15:48:00,
2013-10-02 11:53:00,69.6,52.8,30.00,NNW,338,2.0,5.0,55,0.00,,,0.00,WUHU216DAVISVP2,2013-10-02 15:53:00,
2013-10-02 11:58:00,69.8,51.5,30.00,NE,44,3.0,4.0,52,0.00,,,0.00,WUHU216DAVISVP2,2013-10-02 15:58:00,
2013-10-02 12:03:00,70.1,51.2,30.00,NNE,31,1.0,4.0,51,0.00,,,0.00,WUHU216DAVISVP2,2013-10-02 16:03:00,
2013-10-02 12:08:00,70.3,50.8,30.00,NNE,23,0.0,4.0,50,0.00,,,0.00,WUHU216DAVISVP2,2013-10-02 16:08:00,
2013-10-02 12:13:00,70.5,51.6,30.00,WNW,283,0.0,4.0,51,0.00,,,0.00,WUHU216DAVISVP2,2013-10-02 16:13:00,
2013-10-02 12:18:00,70.7,51.8,30.00,NNE,12,2.0,6.0,51,0.00,,,0.00,WUHU216DAVISVP2,2013-10-02 16:18:00,
2013-10-02 12:23:00,70.6,51.1,30.00,NNE,27,4.0,6.0,50,0.00,,,0.00,WUHU216DAVISVP2,2013-10-02 16:23:00,
2013-10-02 12:28:00,71.0,52.0,30.00,NNW,346,2.0,6.0,51,0.00,,,0.00,WUHU216DAVISVP2,2013-10-02 16:28:00,
2013-10-02 12:33:00,71.1,50.4,30.00,NNE,19,0.0,6.0,48,0.00,,,0.00,WUHU216DAVISVP2,2013-10-02 16:33:00,
2013-10-02 12:38:00,71.3,51.2,30.00,WNW,297,0.0,4.0,49,0.00,,,0.00,WUHU216DAVISVP2,2013-10-02 16:38:00,
2013-10-02 12:43:00,71.6,50.9,29.99,NNE,29,1.0,4.0,48,0.00,,,0.00,WUHU216DAVISVP2,2013-10-02 16:43:00,
2013-10-02 12:48:00,72.0,50.1,29.99,NNW,328,0.0,4.0,46,0.00,,,0.00,WUHU216DAVISVP2,2013-10-02 16:48:00,
2013-10-02 12:53:00,72.2,49.0,29.99,WSW,256,2.0,4.0,44,0.00,,,0.00,WUHU216DAVISVP2,2013-10-02 16:53:00,
2013-10-02 12:58:00,72.5,48.7,29.99,NNE,19,2.0,4.0,43,0.00,,,0.00,WUHU216DAVISVP2,2013-10-02 16:58:00,
2013-10-02 13:03:00,72.8,49.0,30.00,NNW,346,1.0,4.0,43,0.00,,,0.00,WUHU216DAVISVP2,2013-10-02 17:03:00,
2013-10-02 13:08:00,73.1,49.2,30.00,NW,321,1.0,4.0,43,0.00,,,0.00,WUHU216DAVISVP2,2013-10-02 17:08:00,
2013-10-02 13:13:00,73.4,49.5,30.00,West,278,0.0,3.0,43,0.00,,,0.00,WUHU216DAVISVP2,2013-10-02 17:13:00,
2013-10-02 13:18:00,73.9,48.6,29.99,West,274,1.0,4.0,41,0.00,,,0.00,WUHU216DAVISVP2,2013-10-02 17:18:00,
2013-10-02 13:23:00,74.1,48.1,29.99,North,10,7.0,7.0,40,0.00,,,0.00,WUHU216DAVISVP2,2013-10-02 17:23:00,
2013-10-02 13:28:00,74.0,48.7,29.99,ENE,77,1.0,7.0,41,0.00,,,0.00,WUHU216DAVISVP2,2013-10-02 17:28:00,
2013-10-02 13:33:00,74.6,47.2,29.99,West,274,2.0,7.0,38,0.00,,,0.00,WUHU216DAVISVP2,2013-10-02 17:33:00,
2013-10-02 13:38:00,75.2,46.3,29.99,NW,322,0.0,7.0,36,0.00,,,0.00,WUHU216DAVISVP2,2013-10-02 17:38:00,
2013-10-02 13:43:00,75.5,48.1,29.99,West,271,0.0,5.0,38,0.00,,,0.00,WUHU216DAVISVP2,2013-10-02 17:43:00,
2013-10-02 13:48:00,75.7,46.8,29.99,WNW,284,1.0,4.0,36,0.00,,,0.00,WUHU216DAVISVP2,2013-10-02 17:48:00,
2013-10-02 13:53:00,75.5,46.7,29.99,WSW,252,1.0,4.0,36,0.00,,,0.00,WUHU216DAVISVP2,2013-10-02 17:53:00,
2013-10-02 13:58:00,75.8,47.7,29.99,West,271,6.0,6.0,37,0.00,,,0.00,WUHU216DAVISVP2,2013-10-02 17:58:00,
2013-10-02 14:03:00,75.3,47.1,29.99,WNW,298,2.0,7.0,37,0.00,,,0.00,WUHU216DAVISVP2,2013-10-02 18:03:00,
2013-10-02 14:08:00,75.4,47.2,29.98,West,281,1.0,7.0,37,0.00,,,0.00,WUHU216DAVISVP2,2013-10-02 18:08:00,
2013-10-02 14:13:00,75.5,47.3,29.98,West,263,2.0,6.0,37,0.00,,,0.00,WUHU216DAVISVP2,2013-10-02 18:13:00,
2013-10-02 14:18:00,75.1,46.9,29.98,WSW,253,3.0,5.0,37,0.00,,,0.00,WUHU216DAVISVP2,2013-10-02 18:18:00,
2013-10-02 14:23:00,75.1,48.3,29.98,NW,316,1.0,5.0,39,0.00,,,0.00,WUHU216DAVISVP2,2013-10-02 18:23:00,
2013-10-02 14:28:00,75.7,48.2,29.98,WSW,250,3.0,5.0,38,0.00,,,0.00,WUHU216DAVISVP2,2013-10-02 18:28:00,
2013-10-02 14:33:00,75.6,47.4,29.98,West,266,1.0,5.0,37,0.00,,,0.00,WUHU216DAVISVP2,2013-10-02 18:33:00,
2013-10-02 14:38:00,75.6,46.6,29.97,South,188,2.0,5.0,36,0.00,,,0.00,WUHU216DAVISVP2,2013-10-02 18:38:00,
2013-10-02 14:43:00,75.6,47.4,29.97,WNW,293,0.0,5.0,37,0.00,,,0.00,WUHU216DAVISVP2,2013-10-02 18:43:00,
2013-10-02 14:48:00,75.6,45.9,29.97,WNW,286,4.0,5.0,35,0.00,,,0.00,WUHU216DAVISVP2,2013-10-02 18:48:00,
2013-10-02 14:53:00,75.8,46.8,29.97,North,4,1.0,5.0,36,0.00,,,0.00,WUHU216DAVISVP2,2013-10-02 18:53:00,
2013-10-02 14:58:00,75.7,47.4,29.97,West,263,0.0,4.0,37,0.00,,,0.00,WUHU216DAVISVP2,2013-10-02 18:58:00,
2013-10-02 15:03:00,75.8,46.8,29.97,WSW,252,1.0,4.0,36,0.00,,,0.00,WUHU216DAVISVP2,2013-10-02 19:03:00,
2013-10-02 15:08:00,75.7,46.7,29.97,NE,49,0.0,5.0,36,0.00,,,0.00,WUHU216DAVISVP2,2013-10-02 19:08:00,
2013-10-02 15:13:00,75.9,46.1,29.97,NW,308,0.0,5.0,35,0.00,,,0.00,WUHU216DAVISVP2,2013-10-02 19:13:00,
2013-10-02 15:18:00,75.8,46.8,29.97,WSW,250,2.0,5.0,36,0.00,,,0.00,WUHU216DAVISVP2,2013-10-02 19:18:00,
2013-10-02 15:23:00,75.8,46.8,29.97,NE,43,2.0,5.0,36,0.00,,,0.00,WUHU216DAVISVP2,2013-10-02 19:23:00,
2013-10-02 15:28:00,75.5,45.8,29.97,NNW,341,0.0,6.0,35,0.00,,,0.00,WUHU216DAVISVP2,2013-10-02 19:28:00,
2013-10-02 15:33:00,75.6,45.1,29.97,WSW,248,2.0,6.0,34,0.00,,,0.00,WUHU216DAVISVP2,2013-10-02 19:33:00,
2013-10-02 15:38:00,75.6,46.0,29.97,WSW,249,3.0,6.0,35,0.00,,,0.00,WUHU216DAVISVP2,2013-10-02 19:38:00,
2013-10-02 15:43:00,75.5,46.7,29.97,West,263,0.0,6.0,36,0.00,,,0.00,WUHU216DAVISVP2,2013-10-02 19:43:00,
2013-10-02 15:48:00,76.0,46.2,29.96,West,273,1.0,6.0,35,0.00,,,0.00,WUHU216DAVISVP2,2013-10-02 19:48:00,
2013-10-02 15:53:00,75.9,46.1,29.96,West,262,1.0,5.0,35,0.00,,,0.00,WUHU216DAVISVP2,2013-10-02 19:53:00,
2013-10-02 15:58:00,75.9,46.1,29.96,WSW,250,2.0,5.0,35,0.00,,,0.00,WUHU216DAVISVP2,2013-10-02 19:58:00,
2013-10-02 16:03:00,76.1,46.3,29.96,NE,43,4.0,5.0,35,0.00,,,0.00,WUHU216DAVISVP2,2013-10-02 20:03:00,
2013-10-02 16:08:00,75.8,47.5,29.96,NNW,346,1.0,5.0,37,0.00,,,0.00,WUHU216DAVISVP2,2013-10-02 20:08:00,
2013-10-02 16:13:00,75.7,45.2,29.96,West,272,1.0,5.0,34,0.00,,,0.00,WUHU216DAVISVP2,2013-10-02 20:13:00,
2013-10-02 16:18:00,76.0,45.4,29.96,SW,219,2.0,4.0,34,0.00,,,0.00,WUHU216DAVISVP2,2013-10-02 20:18:00,
2013-10-02 16:23:00,76.0,46.2,29.96,West,262,1.0,4.0,35,0.00,,,0.00,WUHU216DAVISVP2,2013-10-02 20:23:00,
2013-10-02 16:28:00,76.2,46.4,29.96,West,260,1.0,4.0,35,0.00,,,0.00,WUHU216DAVISVP2,2013-10-02 20:28:00,
2013-10-02 16:33:00,76.2,46.4,29.96,West,267,3.0,4.0,35,0.00,,,0.00,WUHU216DAVISVP2,2013-10-02 20:33:00,
2013-10-02 16:38:00,76.0,45.4,29.95,NNE,20,0.0,4.0,34,0.00,,,0.00,WUHU216DAVISVP2,2013-10-02 20:38:00,
2013-10-02 16:43:00,76.0,45.4,29.95,West,262,2.0,4.0,34,0.00,,,0.00,WUHU216DAVISVP2,2013-10-02 20:43:00,
2013-10-02 16:48:00,76.2,46.4,29.95,West,273,0.0,3.0,35,0.00,,,0.00,WUHU216DAVISVP2,2013-10-02 20:48:00,
2013-10-02 16:53:00,76.1,46.5,29.95,NNW,327,1.0,3.0,35,0.00,,,0.00,WUHU216DAVISVP2,2013-10-02 20:53:00,
2013-10-02 16:58:00,76.3,46.6,29.95,West,263,0.0,3.0,35,0.00,,,0.00,WUHU216DAVISVP2,2013-10-02 20:58:00,
2013-10-02 17:03:00,76.3,45.7,29.95,NW,311,1.0,3.0,34,0.00,,,0.00,WUHU216DAVISVP2,2013-10-02 21:03:00,
2013-10-02 17:08:00,76.1,45.5,29.95,NW,323,0.0,3.0,34,0.00,,,0.00,WUHU216DAVISVP2,2013-10-02 21:08:00,
2013-10-02 17:13:00,76.0,44.7,29.95,WNW,301,1.0,2.0,33,0.00,,,0.00,WUHU216DAVISVP2,2013-10-02 21:13:00,
2013-10-02 17:18:00,75.7,45.2,29.95,SSW,207,1.0,2.0,34,0.00,,,0.00,WUHU216DAVISVP2,2013-10-02 21:18:00,
2013-10-02 17:23:00,75.8,45.3,29.95,West,260,0.0,2.0,34,0.00,,,0.00,WUHU216DAVISVP2,2013-10-02 21:23:00,
2013-10-02 17:28:00,75.9,45.4,29.95,West,262,0.0,2.0,34,0.00,,,0.00,WUHU216DAVISVP2,2013-10-02 21:28:00,
2013-10-02 17:33:00,75.8,46.2,29.95,West,262,0.0,2.0,35,0.00,,,0.00,WUHU216DAVISVP2,2013-10-02 21:33:00,
2013-10-02 17:38:00,75.5,45.8,29.95,WNW,291,0.0,2.0,35,0.00,,,0.00,WUHU216DAVISVP2,2013-10-02 21:38:00,
2013-10-02 17:43:00,75.7,44.4,29.95,WSW,253,1.0,2.0,33,0.00,,,0.00,WUHU216DAVISVP2,2013-10-02 21:43:00,
2013-10-02 17:48:00,75.8,46.0,29.94,NNW,340,0.0,2.0,35,0.00,,,0.00,WUHU216DAVISVP2,2013-10-02 21:48:00,
2013-10-02 17:53:00,76.2,47.9,29.95,West,267,0.0,2.0,37,0.00,,,0.00,WUHU216DAVISVP2,2013-10-02 21:53:00,
2013-10-02 17:58:00,75.9,46.1,29.95,NNE,22,0.0,2.0,35,0.00,,,0.00,WUHU216DAVISVP2,2013-10-02 21:58:00,
2013-10-02 18:03:00,75.5,46.5,29.95,NNE,17,0.0,2.0,36,0.00,,,0.00,WUHU216DAVISVP2,2013-10-02 22:03:00,
2013-10-02 18:08:00,75.3,46.3,29.95,NNE,27,0.0,2.0,36,0.00,,,0.00,WUHU216DAVISVP2,2013-10-02 22:08:00,
2013-10-02 18:13:00,75.1,47.6,29.95,NNE,27,0.0,1.0,38,0.00,,,0.00,WUHU216DAVISVP2,2013-10-02 22:13:00,
2013-10-02 18:18:00,74.7,46.6,29.95,ESE,116,0.0,1.0,37,0.00,,,0.00,WUHU216DAVISVP2,2013-10-02 22:18:00,
2013-10-02 18:23:00,74.3,46.9,29.95,NE,49,1.0,2.0,38,0.00,,,0.00,WUHU216DAVISVP2,2013-10-02 22:23:00,
2013-10-02 18:28:00,73.8,47.2,29.95,North,9,0.0,2.0,39,0.00,,,0.00,WUHU216DAVISVP2,2013-10-02 22:28:00,
2013-10-02 18:33:00,73.4,47.5,29.95,North,8,0.0,2.0,40,0.00,,,0.00,WUHU216DAVISVP2,2013-10-02 22:33:00,
2013-10-02 18:38:00,72.9,47.2,29.95,North,8,0.0,2.0,40,0.00,,,0.00,WUHU216DAVISVP2,2013-10-02 22:38:00,
2013-10-02 18:43:00,72.6,47.5,29.95,North,8,0.0,1.0,41,0.00,,,0.00,WUHU216DAVISVP2,2013-10-02 22:43:00,
2013-10-02 18:48:00,72.1,47.7,29.95,North,8,0.0,1.0,42,0.00,,,0.00,WUHU216DAVISVP2,2013-10-02 22:48:00,
2013-10-02 18:53:00,71.7,47.9,29.95,North,8,0.0,1.0,43,0.00,,,0.00,WUHU216DAVISVP2,2013-10-02 22:53:00,
2013-10-02 18:58:00,71.2,48.1,29.95,North,9,0.0,1.0,44,0.00,,,0.00,WUHU216DAVISVP2,2013-10-02 22:58:00,
2013-10-02 19:03:00,70.8,49.0,29.95,North,8,0.0,1.0,46,0.00,,,0.00,WUHU216DAVISVP2,2013-10-02 23:03:00,
2013-10-02 19:08:00,70.2,49.0,29.95,North,9,0.0,1.0,47,0.00,,,0.00,WUHU216DAVISVP2,2013-10-02 23:08:00,
2013-10-02 19:13:00,69.4,48.3,29.95,North,8,0.0,1.0,47,0.00,,,0.00,WUHU216DAVISVP2,2013-10-02 23:13:00,
2013-10-02 19:18:00,68.6,48.1,29.95,North,8,0.0,0.0,48,0.00,,,0.00,WUHU216DAVISVP2,2013-10-02 23:18:00,
2013-10-02 19:23:00,68.0,48.2,29.95,North,8,0.0,0.0,49,0.00,,,0.00,WUHU216DAVISVP2,2013-10-02 23:23:00,
2013-10-02 19:28:00,67.5,49.3,29.95,North,8,0.0,0.0,52,0.00,,,0.00,WUHU216DAVISVP2,2013-10-02 23:28:00,
2013-10-02 19:33:00,66.9,50.3,29.95,North,8,0.0,0.0,55,0.00,,,0.00,WUHU216DAVISVP2,2013-10-02 23:33:00,
2013-10-02 19:38:00,66.2,49.7,29.95,North,9,0.0,0.0,55,0.00,,,0.00,WUHU216DAVISVP2,2013-10-02 23:38:00,
2013-10-02 19:43:00,65.5,49.5,29.95,North,8,0.0,0.0,56,0.00,,,0.00,WUHU216DAVISVP2,2013-10-02 23:43:00,
2013-10-02 19:48:00,65.0,49.5,29.95,North,9,0.0,0.0,57,0.00,,,0.00,WUHU216DAVISVP2,2013-10-02 23:48:00,
2013-10-02 19:49:00,64.9,49.4,29.95,North,8,0.0,0.0,57,0.00,,,0.00,WUHU216DAVISVP2,2013-10-02 23:49:00,
2013-10-02 19:54:00,64.5,49.1,29.96,North,8,0.0,0.0,57,0.00,,,0.00,WUHU216DAVISVP2,2013-10-02 23:54:00,
2013-10-02 19:59:00,64.2,50.6,29.96,North,8,0.0,0.0,61,0.00,,,0.00,WUHU216DAVISVP2,2013-10-02 23:59:00,
2013-10-02 20:04:00,63.7,51.0,29.96,North,8,0.0,0.0,63,0.00,,,0.00,WUHU216DAVISVP2,2013-10-03 00:04:00,
2013-10-02 20:09:00,63.3,50.2,29.96,North,8,0.0,0.0,62,0.00,,,0.00,WUHU216DAVISVP2,2013-10-03 00:09:00,
2013-10-02 20:14:00,62.9,51.1,29.96,North,9,0.0,0.0,65,0.00,,,0.00,WUHU216DAVISVP2,2013-10-03 00:14:00,
2013-10-02 20:19:00,62.5,50.3,29.96,North,8,0.0,0.0,64,0.00,,,0.00,WUHU216DAVISVP2,2013-10-03 00:19:00,
2013-10-02 20:24:00,62.2,50.9,29.96,North,8,0.0,0.0,66,0.00,,,0.00,WUHU216DAVISVP2,2013-10-03 00:24:00,
2013-10-02 20:29:00,61.8,50.9,29.96,North,9,0.0,0.0,67,0.00,,,0.00,WUHU216DAVISVP2,2013-10-03 00:29:00,
2013-10-02 20:34:00,61.3,50.4,29.96,North,9,0.0,0.0,67,0.00,,,0.00,WUHU216DAVISVP2,2013-10-03 00:34:00,
2013-10-02 20:39:00,61.0,50.9,29.96,North,9,0.0,0.0,69,0.00,,,0.00,WUHU216DAVISVP2,2013-10-03 00:39:00,
2013-10-02 20:44:00,60.9,50.0,29.96,North,8,0.0,0.0,67,0.00,,,0.00,WUHU216DAVISVP2,2013-10-03 00:44:00,
2013-10-02 20:49:00,60.9,50.4,29.96,North,8,0.0,0.0,68,0.00,,,0.00,WUHU216DAVISVP2,2013-10-03 00:49:00,
2013-10-02 20:54:00,60.6,50.5,29.96,North,8,0.0,0.0,69,0.00,,,0.00,WUHU216DAVISVP2,2013-10-03 00:54:00,
2013-10-02 20:59:00,60.3,50.6,29.96,North,8,0.0,0.0,70,0.00,,,0.00,WUHU216DAVISVP2,2013-10-03 00:59:00,
2013-10-02 21:04:00,59.9,50.6,29.96,North,9,0.0,0.0,71,0.00,,,0.00,WUHU216DAVISVP2,2013-10-03 01:04:00,
2013-10-02 21:09:00,59.6,50.7,29.96,North,9,0.0,0.0,72,0.00,,,0.00,WUHU216DAVISVP2,2013-10-03 01:09:00,
2013-10-02 21:14:00,59.2,50.7,29.96,North,8,0.0,0.0,73,0.00,,,0.00,WUHU216DAVISVP2,2013-10-03 01:14:00,
2013-10-02 21:19:00,58.8,50.2,29.96,North,8,0.0,0.0,73,0.00,,,0.00,WUHU216DAVISVP2,2013-10-03 01:19:00,
2013-10-02 21:24:00,58.7,49.4,29.96,North,8,0.0,0.0,71,0.00,,,0.00,WUHU216DAVISVP2,2013-10-03 01:24:00,
2013-10-02 21:29:00,58.8,50.2,29.97,North,9,0.0,0.0,73,0.00,,,0.00,WUHU216DAVISVP2,2013-10-03 01:29:00,
2013-10-02 21:34:00,58.6,50.0,29.96,North,8,0.0,0.0,73,0.00,,,0.00,WUHU216DAVISVP2,2013-10-03 01:34:00,
2013-10-02 21:39:00,58.3,50.0,29.97,North,9,0.0,0.0,74,0.00,,,0.00,WUHU216DAVISVP2,2013-10-03 01:39:00,
2013-10-02 21:44:00,58.0,50.1,29.97,North,9,0.0,0.0,75,0.00,,,0.00,WUHU216DAVISVP2,2013-10-03 01:44:00,
2013-10-02 21:49:00,57.8,50.3,29.97,North,9,0.0,0.0,76,0.00,,,0.00,WUHU216DAVISVP2,2013-10-03 01:49:00,
2013-10-02 21:54:00,57.5,50.3,29.97,North,8,0.0,0.0,77,0.00,,,0.00,WUHU216DAVISVP2,2013-10-03 01:54:00,
2013-10-02 21:59:00,57.3,49.4,29.97,North,9,0.0,0.0,75,0.00,,,0.00,WUHU216DAVISVP2,2013-10-03 01:59:00,
2013-10-02 22:04:00,57.2,49.7,29.97,North,8,0.0,0.0,76,0.00,,,0.00,WUHU216DAVISVP2,2013-10-03 02:04:00,
2013-10-02 22:05:00,57.2,50.1,29.97,North,9,0.0,0.0,77,0.00,,,0.00,WUHU216DAVISVP2,2013-10-03 02:05:00,
2013-10-02 22:10:00,57.1,49.6,29.97,North,8,0.0,0.0,76,0.00,,,0.00,WUHU216DAVISVP2,2013-10-03 02:10:00,
2013-10-02 22:15:00,56.9,49.4,29.97,North,8,0.0,0.0,76,0.00,,,0.00,WUHU216DAVISVP2,2013-10-03 02:15:00,
2013-10-02 22:20:00,56.8,49.7,29.97,North,8,0.0,0.0,77,0.00,,,0.00,WUHU216DAVISVP2,2013-10-03 02:20:00,
2013-10-02 22:25:00,56.7,49.6,29.96,North,8,0.0,0.0,77,0.00,,,0.00,WUHU216DAVISVP2,2013-10-03 02:25:00,
2013-10-02 22:30:00,56.5,49.7,29.96,North,8,0.0,1.0,78,0.00,,,0.00,WUHU216DAVISVP2,2013-10-03 02:30:00,
2013-10-02 22:35:00,56.4,49.6,29.96,North,8,0.0,1.0,78,0.00,,,0.00,WUHU216DAVISVP2,2013-10-03 02:35:00,
2013-10-02 22:40:00,56.2,47.3,29.96,North,8,0.0,1.0,72,0.00,,,0.00,WUHU216DAVISVP2,2013-10-03 02:40:00,
2013-10-02 22:45:00,56.4,47.2,29.96,North,8,0.0,1.0,71,0.00,,,0.00,WUHU216DAVISVP2,2013-10-03 02:45:00,
2013-10-02 22:50:00,56.7,48.1,29.97,North,8,0.0,0.0,73,0.00,,,0.00,WUHU216DAVISVP2,2013-10-03 02:50:00,
2013-10-02 22:55:00,56.8,48.3,29.97,North,8,0.0,0.0,73,0.00,,,0.00,WUHU216DAVISVP2,2013-10-03 02:55:00,
2013-10-02 23:00:00,56.8,49.4,29.97,North,8,0.0,0.0,76,0.00,,,0.00,WUHU216DAVISVP2,2013-10-03 03:00:00,
2013-10-02 23:05:00,56.6,49.5,29.97,North,9,0.0,0.0,77,0.00,,,0.00,WUHU216DAVISVP2,2013-10-03 03:05:00,
2013-10-02 23:10:00,56.3,49.3,29.97,North,9,0.0,0.0,77,0.00,,,0.00,WUHU216DAVISVP2,2013-10-03 03:10:00,
2013-10-02 23:15:00,56.1,49.4,29.97,North,8,0.0,0.0,78,0.00,,,0.00,WUHU216DAVISVP2,2013-10-03 03:15:00,
2013-10-02 23:20:00,55.8,49.0,29.97,North,9,0.0,0.0,78,0.00,,,0.00,WUHU216DAVISVP2,2013-10-03 03:20:00,
2013-10-02 23:25:00,55.7,49.3,29.97,North,8,0.0,0.0,79,0.00,,,0.00,WUHU216DAVISVP2,2013-10-03 03:25:00,
2013-10-02 23:30:00,55.7,48.9,29.97,North,8,0.0,0.0,78,0.00,,,0.00,WUHU216DAVISVP2,2013-10-03 03:30:00,
2013-10-02 23:35:00,55.7,50.0,29.97,North,8,0.0,0.0,81,0.00,,,0.00,WUHU216DAVISVP2,2013-10-03 03:35:00,
2013-10-02 23:40:00,55.6,48.8,29.97,North,8,0.0,0.0,78,0.00,,,0.00,WUHU216DAVISVP2,2013-10-03 03:40:00,
2013-10-02 23:45:00,55.9,49.1,29.97,North,9,0.0,0.0,78,0.00,,,0.00,WUHU216DAVISVP2,2013-10-03 03:45:00,
2013-10-02 23:50:00,56.0,49.2,29.97,North,8,0.0,0.0,78,0.00,,,0.00,WUHU216DAVISVP2,2013-10-03 03:50:00,
2013-10-02 23:55:00,55.9,49.1,29.98,North,8,0.0,0.0,78,0.00,,,0.00,WUHU216DAVISVP2,2013-10-03 03:55:00,